Time,TemperatureF,DewpointF,PressureIn,WindDirection,WindDirectionDegrees,WindSpeedMPH,WindSpeedGustMPH,Humidity,HourlyPrecipIn,Conditions,Clouds,dailyrainin,SoftwareType,DateUTC
2013-07-07 00:01:00,79.2,73.9,30.21,SW,215,3.4,6.9,84,0.00,CLR,,0.00,WeatherDisplay:10.37,2013-07-07 04:01:00,
2013-07-07 00:02:00,79.2,74.3,30.21,South,188,2.6,3.5,85,0.00,CLR,,0.00,WeatherDisplay:10.37,2013-07-07 04:02:00,
2013-07-07 00:03:00,79.2,74.3,30.21,South,188,3.3,8.1,85,0.00,CLR,,0.00,WeatherDisplay:10.37,2013-07-07 04:03:00,
2013-07-07 00:04:00,79.2,74.3,30.21,SSE,165,3.7,5.8,85,0.00,CLR,,0.00,WeatherDisplay:10.37,2013-07-07 04:04:00,
2013-07-07 00:09:00,79.2,74.3,30.21,SSW,194,2.0,3.5,85,0.00,CLR,,0.00,WeatherDisplay:10.37,2013-07-07 04:09:00,
2013-07-07 00:14:00,79.2,74.3,30.21,SSW,213,0.1,3.5,85,0.00,CLR,,0.00,WeatherDisplay:10.37,2013-07-07 04:14:00,
2013-07-07 00:19:00,79.1,74.5,30.21,WSW,241,2.9,4.6,86,0.00,CLR,,0.00,WeatherDisplay:10.37,2013-07-07 04:19:00,
2013-07-07 00:25:00,79.1,74.2,30.21,SSW,198,2.0,4.0,85,0.00,CLR,,0.00,WeatherDisplay:10.37,2013-07-07 04:25:00,
2013-07-07 00:30:00,78.9,74.0,30.21,SSW,212,1.0,4.0,85,0.00,,,0.00,WeatherDisplay:10.37,2013-07-07 04:30:00,
2013-07-07 00:35:00,78.8,73.6,30.21,SSW,199,2.0,7.0,84,0.00,CLR,,0.00,WeatherDisplay:10.37,2013-07-07 04:35:00,
2013-07-07 00:40:00,78.8,73.9,30.20,SSW,199,3.7,5.8,85,0.00,CLR,,0.00,WeatherDisplay:10.37,2013-07-07 04:40:00,
2013-07-07 00:45:00,78.7,73.8,30.20,SSW,208,1.0,3.0,85,0.00,CLR,,0.00,WeatherDisplay:10.37,2013-07-07 04:45:00,
2013-07-07 00:50:00,78.6,73.7,30.20,SSW,198,1.1,3.5,85,0.00,CLR,,0.00,WeatherDisplay:10.37,2013-07-07 04:50:00,
2013-07-07 00:55:00,78.6,73.4,30.20,SSE,157,2.3,4.6,84,0.00,CLR,,0.00,WeatherDisplay:10.37,2013-07-07 04:55:00,
2013-07-07 01:01:00,78.7,73.5,30.20,SSW,202,2.1,4.6,84,0.00,CLR,,0.00,WeatherDisplay:10.37,2013-07-07 05:01:00,
2013-07-07 01:06:00,78.7,73.5,30.20,South,187,0.0,3.5,84,0.00,CLR,,0.00,WeatherDisplay:10.37,2013-07-07 05:06:00,
2013-07-07 01:11:00,78.7,73.8,30.20,SSW,205,0.1,0.0,85,0.00,CLR,,0.00,WeatherDisplay:10.37,2013-07-07 05:11:00,
2013-07-07 01:17:00,78.6,73.7,30.20,South,188,1.6,9.2,85,0.00,CLR,,0.00,WeatherDisplay:10.37,2013-07-07 05:17:00,
2013-07-07 01:22:00,78.7,73.8,30.20,SSW,194,1.8,6.9,85,0.00,CLR,,0.00,WeatherDisplay:10.37,2013-07-07 05:22:00,
2013-07-07 01:27:00,78.7,73.5,30.20,SSW,197,3.1,5.8,84,0.00,CLR,,0.00,WeatherDisplay:10.37,2013-07-07 05:27:00,
2013-07-07 01:32:00,78.8,73.6,30.20,SSE,167,3.6,6.9,84,0.00,CLR,,0.00,WeatherDisplay:10.37,2013-07-07 05:32:00,
2013-07-07 01:37:00,78.8,73.6,30.20,South,185,1.6,3.5,84,0.00,CLR,,0.00,WeatherDisplay:10.37,2013-07-07 05:37:00,
2013-07-07 01:42:00,78.7,73.8,30.20,SW,221,0.7,3.5,85,0.00,CLR,,0.00,WeatherDisplay:10.37,2013-07-07 05:42:00,
2013-07-07 01:47:00,78.7,73.8,30.20,SSW,209,3.8,3.8,85,0.00,CLR,,0.00,WeatherDisplay:10.37,2013-07-07 05:47:00,
2013-07-07 01:52:00,78.7,73.5,30.20,SSW,194,4.5,5.8,84,0.00,CLR,,0.00,WeatherDisplay:10.37,2013-07-07 05:52:00,
2013-07-07 01:58:00,78.8,73.6,30.20,SSW,197,2.5,3.5,84,0.00,CLR,,0.00,WeatherDisplay:10.37,2013-07-07 05:58:00,
2013-07-07 02:03:00,78.7,73.1,30.20,South,183,6.1,8.1,83,0.00,CLR,,0.00,WeatherDisplay:10.37,2013-07-07 06:03:00,
2013-07-07 02:08:00,78.8,73.2,30.20,SSW,192,4.9,6.9,83,0.00,CLR,,0.00,WeatherDisplay:10.37,2013-07-07 06:08:00,
2013-07-07 02:14:00,78.8,73.2,30.20,SSW,194,1.4,4.6,83,0.00,CLR,,0.00,WeatherDisplay:10.37,2013-07-07 06:14:00,
2013-07-07 02:19:00,78.7,73.1,30.20,SSW,213,5.2,6.9,83,0.00,CLR,,0.00,WeatherDisplay:10.37,2013-07-07 06:19:00,
2013-07-07 02:24:00,78.8,72.8,30.20,South,188,0.9,7.0,82,0.00,CLR,,0.00,WeatherDisplay:10.37,2013-07-07 06:24:00,
2013-07-07 02:29:00,78.8,73.2,30.20,South,182,3.1,4.6,83,0.00,CLR,,0.00,WeatherDisplay:10.37,2013-07-07 06:29:00,
2013-07-07 02:34:00,78.7,73.1,30.19,SSW,213,2.7,4.0,83,0.00,CLR,,0.00,WeatherDisplay:10.37,2013-07-07 06:34:00,
2013-07-07 02:39:00,78.7,73.5,30.20,SSW,209,2.2,4.6,84,0.00,CLR,,0.00,WeatherDisplay:10.37,2013-07-07 06:39:00,
2013-07-07 02:44:00,78.7,73.5,30.20,SSW,209,0.0,0.0,84,0.00,CLR,,0.00,WeatherDisplay:10.37,2013-07-07 06:44:00,
2013-07-07 02:49:00,78.6,73.4,30.19,South,178,0.0,2.3,84,0.00,CLR,,0.00,WeatherDisplay:10.37,2013-07-07 06:49:00,
2013-07-07 02:55:00,78.5,73.3,30.19,SW,217,3.4,3.4,84,0.00,CLR,,0.00,WeatherDisplay:10.37,2013-07-07 06:55:00,
2013-07-07 03:00:00,78.5,72.9,30.19,South,183,1.0,6.0,83,0.00,CLR,,0.00,WeatherDisplay:10.37,2013-07-07 07:00:00,
2013-07-07 03:05:00,78.5,72.9,30.19,South,191,0.0,2.0,83,0.00,CLR,,0.00,WeatherDisplay:10.37,2013-07-07 07:05:00,
2013-07-07 03:10:00,78.4,73.1,30.19,SSW,203,0.0,5.0,84,0.00,CLR,,0.00,WeatherDisplay:10.37,2013-07-07 07:10:00,
2013-07-07 03:15:00,78.2,73.0,30.19,SSW,202,0.0,1.0,84,0.00,CLR,,0.00,WeatherDisplay:10.37,2013-07-07 07:15:00,
2013-07-07 03:20:00,78.0,72.7,30.19,SSW,200,0.0,2.0,84,0.00,,,0.00,WeatherDisplay:10.37,2013-07-07 07:20:00,
2013-07-07 03:25:00,77.8,72.9,30.19,SSW,200,1.0,4.0,85,0.00,,,0.00,WeatherDisplay:10.37,2013-07-07 07:25:00,
2013-07-07 03:30:00,77.7,73.2,30.18,South,181,1.0,5.0,86,0.00,,,0.00,WeatherDisplay:10.37,2013-07-07 07:30:00,
2013-07-07 03:35:00,77.8,72.9,30.19,SSW,206,2.0,5.8,85,0.00,CLR,,0.00,WeatherDisplay:10.37,2013-07-07 07:35:00,
2013-07-07 03:40:00,77.8,72.9,30.19,SSW,206,0.0,1.1,85,0.00,CLR,,0.00,WeatherDisplay:10.37,2013-07-07 07:40:00,
2013-07-07 03:45:00,77.7,72.8,30.19,SSW,206,0.0,0.0,85,0.00,CLR,,0.00,WeatherDisplay:10.37,2013-07-07 07:45:00,
2013-07-07 03:50:00,77.6,72.7,30.19,WNW,288,0.0,2.3,85,0.00,CLR,,0.00,WeatherDisplay:10.37,2013-07-07 07:50:00,
2013-07-07 03:55:00,77.4,72.5,30.19,WNW,288,0.0,0.0,85,0.00,CLR,,0.00,WeatherDisplay:10.37,2013-07-07 07:55:00,
2013-07-07 04:00:00,77.3,72.4,30.19,WNW,288,0.0,0.0,85,0.00,CLR,,0.00,WeatherDisplay:10.37,2013-07-07 08:00:00,
2013-07-07 04:05:00,77.1,72.6,30.19,WNW,288,0.0,0.0,86,0.00,CLR,,0.00,WeatherDisplay:10.37,2013-07-07 08:05:00,
2013-07-07 04:10:00,76.9,72.4,30.19,WNW,288,0.0,1.1,86,0.00,CLR,,0.00,WeatherDisplay:10.37,2013-07-07 08:10:00,
2013-07-07 04:16:00,76.7,72.5,30.19,WNW,288,0.0,0.0,87,0.00,CLR,,0.00,WeatherDisplay:10.37,2013-07-07 08:16:00,
2013-07-07 04:21:00,76.6,72.4,30.19,WNW,288,0.0,0.0,87,0.00,CLR,,0.00,WeatherDisplay:10.37,2013-07-07 08:21:00,
2013-07-07 04:26:00,76.6,72.8,30.19,WNW,288,0.1,1.1,88,0.00,CLR,,0.00,WeatherDisplay:10.37,2013-07-07 08:26:00,
2013-07-07 04:31:00,76.6,72.8,30.19,WNW,288,0.0,1.1,88,0.00,CLR,,0.00,WeatherDisplay:10.37,2013-07-07 08:31:00,
2013-07-07 04:36:00,76.6,72.4,30.19,SW,221,0.0,0.0,87,0.00,CLR,,0.00,WeatherDisplay:10.37,2013-07-07 08:36:00,
2013-07-07 04:41:00,76.5,72.7,30.19,SW,221,0.0,0.0,88,0.00,CLR,,0.00,WeatherDisplay:10.37,2013-07-07 08:41:00,
2013-07-07 04:46:00,76.3,72.5,30.19,SW,222,0.0,0.0,88,0.00,CLR,,0.00,WeatherDisplay:10.37,2013-07-07 08:46:00,
2013-07-07 04:52:00,76.2,72.0,30.19,South,184,0.5,2.3,87,0.00,CLR,,0.00,WeatherDisplay:10.37,2013-07-07 08:52:00,
2013-07-07 04:57:00,76.1,71.9,30.19,South,184,0.0,0.0,87,0.00,CLR,,0.00,WeatherDisplay:10.37,2013-07-07 08:57:00,
2013-07-07 05:02:00,76.0,71.8,30.19,South,184,0.0,1.1,87,0.00,CLR,,0.00,WeatherDisplay:10.37,2013-07-07 09:02:00,
2013-07-07 05:07:00,75.8,72.0,30.19,ESE,109,0.8,3.5,88,0.00,CLR,,0.00,WeatherDisplay:10.37,2013-07-07 09:07:00,
2013-07-07 05:13:00,75.8,72.0,30.19,ESE,109,0.8,2.3,88,0.00,CLR,,0.00,WeatherDisplay:10.37,2013-07-07 09:13:00,
2013-07-07 05:18:00,75.8,72.0,30.19,ESE,109,0.2,1.1,88,0.00,CLR,,0.00,WeatherDisplay:10.37,2013-07-07 09:18:00,
2013-07-07 05:23:00,75.7,71.9,30.19,ESE,109,0.0,0.0,88,0.00,CLR,,0.00,WeatherDisplay:10.37,2013-07-07 09:23:00,
2013-07-07 05:28:00,75.6,71.8,30.19,ESE,109,0.0,0.0,88,0.00,CLR,,0.00,WeatherDisplay:10.37,2013-07-07 09:28:00,
2013-07-07 05:33:00,75.5,71.7,30.19,ESE,109,0.0,0.0,88,0.00,CLR,,0.00,WeatherDisplay:10.37,2013-07-07 09:33:00,
2013-07-07 05:38:00,75.4,71.6,30.20,ESE,109,0.0,0.0,88,0.00,CLR,,0.00,WeatherDisplay:10.37,2013-07-07 09:38:00,
2013-07-07 05:44:00,75.3,71.5,30.20,ESE,110,0.0,0.0,88,0.00,CLR,,0.00,WeatherDisplay:10.37,2013-07-07 09:44:00,
2013-07-07 05:49:00,75.1,71.3,30.20,ESE,109,0.0,0.0,88,0.00,CLR,,0.00,WeatherDisplay:10.37,2013-07-07 09:49:00,
2013-07-07 05:54:00,74.8,71.3,30.19,ESE,109,0.0,0.0,89,0.00,CLR,,0.00,WeatherDisplay:10.37,2013-07-07 09:54:00,
2013-07-07 05:59:00,74.5,71.0,30.20,ESE,109,0.0,0.0,89,0.00,CLR,,0.00,WeatherDisplay:10.37,2013-07-07 09:59:00,
2013-07-07 06:04:00,74.2,70.7,30.20,ESE,109,0.0,0.0,89,0.00,CLR,,0.00,WeatherDisplay:10.37,2013-07-07 10:04:00,
2013-07-07 06:09:00,74.0,70.9,30.20,ESE,110,0.4,1.1,90,0.00,CLR,,0.00,WeatherDisplay:10.37,2013-07-07 10:09:00,
2013-07-07 06:15:00,73.7,70.6,30.20,ESE,110,0.0,0.0,90,0.00,CLR,,0.00,WeatherDisplay:10.37,2013-07-07 10:15:00,
2013-07-07 06:20:00,73.5,70.7,30.20,ESE,110,0.0,1.0,91,0.00,,,0.00,WeatherDisplay:10.37,2013-07-07 10:20:00,
2013-07-07 06:25:00,73.4,70.9,30.20,ESE,110,0.0,0.0,92,0.00,,,0.00,WeatherDisplay:10.37,2013-07-07 10:25:00,
2013-07-07 06:30:00,73.4,70.9,30.20,ESE,110,0.0,0.0,92,0.00,,,0.00,WeatherDisplay:10.37,2013-07-07 10:30:00,
2013-07-07 06:35:00,73.5,71.4,30.20,ESE,118,0.0,3.0,93,0.00,,,0.00,WeatherDisplay:10.37,2013-07-07 10:35:00,
2013-07-07 06:40:00,73.6,71.4,30.20,ESE,123,0.0,0.0,93,0.00,,,0.00,WeatherDisplay:10.37,2013-07-07 10:40:00,
2013-07-07 06:45:00,73.8,71.6,30.20,ESE,123,0.0,0.0,93,0.00,,,0.00,WeatherDisplay:10.37,2013-07-07 10:45:00,
2013-07-07 06:50:00,74.1,71.9,30.20,ESE,123,0.0,3.0,93,0.00,,,0.00,WeatherDisplay:10.37,2013-07-07 10:50:00,
2013-07-07 06:55:00,74.3,72.1,30.20,SE,124,0.6,2.3,93,0.00,CLR,,0.00,WeatherDisplay:10.37,2013-07-07 10:55:00,
2013-07-07 07:00:00,74.6,72.1,30.20,SSW,192,0.6,3.5,92,0.00,CLR,,0.00,WeatherDisplay:10.37,2013-07-07 11:00:00,
2013-07-07 07:05:00,75.0,72.2,30.20,SSW,193,1.6,4.0,91,0.00,CLR,,0.00,WeatherDisplay:10.37,2013-07-07 11:05:00,
2013-07-07 07:11:00,75.7,72.6,30.21,SSW,209,0.0,0.0,90,0.00,CLR,,0.00,WeatherDisplay:10.37,2013-07-07 11:11:00,
2013-07-07 07:16:00,76.2,72.7,30.21,SSW,194,0.0,1.1,89,0.00,CLR,,0.00,WeatherDisplay:10.37,2013-07-07 11:16:00,
2013-07-07 07:21:00,76.7,72.9,30.21,SSW,197,2.0,3.5,88,0.00,CLR,,0.00,WeatherDisplay:10.37,2013-07-07 11:21:00,
2013-07-07 07:26:00,77.1,72.6,30.21,SSW,202,2.9,6.9,86,0.00,CLR,,0.00,WeatherDisplay:10.37,2013-07-07 11:26:00,
2013-07-07 07:31:00,77.7,72.8,30.21,SSW,192,1.5,2.0,85,0.00,CLR,,0.00,WeatherDisplay:10.37,2013-07-07 11:31:00,
2013-07-07 07:36:00,78.1,72.9,30.21,SSW,194,5.2,5.8,84,0.00,CLR,,0.00,WeatherDisplay:10.37,2013-07-07 11:36:00,
2013-07-07 07:42:00,78.5,73.3,30.21,SSW,207,0.3,3.5,84,0.00,CLR,,0.00,WeatherDisplay:10.37,2013-07-07 11:42:00,
2013-07-07 07:47:00,78.8,73.2,30.22,South,181,0.1,1.1,83,0.00,CLR,,0.00,WeatherDisplay:10.37,2013-07-07 11:47:00,
2013-07-07 07:52:00,79.0,73.0,30.22,South,186,2.7,5.8,82,0.00,CLR,,0.00,WeatherDisplay:10.37,2013-07-07 11:52:00,
2013-07-07 07:57:00,79.2,73.2,30.22,SSW,204,3.8,6.0,82,0.00,CLR,,0.00,WeatherDisplay:10.37,2013-07-07 11:57:00,
2013-07-07 08:02:00,79.4,73.1,30.22,SSW,212,3.9,6.9,81,0.00,CLR,,0.00,WeatherDisplay:10.37,2013-07-07 12:02:00,
2013-07-07 08:07:00,79.6,73.6,30.22,South,170,0.4,4.6,82,0.00,CLR,,0.00,WeatherDisplay:10.37,2013-07-07 12:07:00,
2013-07-07 08:12:00,79.9,74.3,30.22,SSW,192,2.9,6.9,83,0.00,CLR,,0.00,WeatherDisplay:10.37,2013-07-07 12:12:00,
2013-07-07 08:17:00,80.1,74.1,30.22,SSW,198,3.5,5.8,82,0.00,CLR,,0.00,WeatherDisplay:10.37,2013-07-07 12:17:00,
2013-07-07 08:23:00,80.1,73.4,30.22,South,182,4.3,6.9,80,0.00,CLR,,0.00,WeatherDisplay:10.37,2013-07-07 12:23:00,
2013-07-07 08:28:00,79.8,73.1,30.22,SSW,202,0.0,1.1,80,0.00,CLR,,0.00,WeatherDisplay:10.37,2013-07-07 12:28:00,
2013-07-07 08:33:00,80.0,73.6,30.22,SW,215,0.7,2.3,81,0.00,CLR,,0.00,WeatherDisplay:10.37,2013-07-07 12:33:00,
2013-07-07 08:38:00,80.3,73.6,30.22,SSW,208,0.4,5.8,80,0.00,CLR,,0.00,WeatherDisplay:10.37,2013-07-07 12:38:00,
2013-07-07 08:43:00,80.6,73.9,30.22,SSE,165,4.8,6.9,80,0.00,CLR,,0.00,WeatherDisplay:10.37,2013-07-07 12:43:00,
2013-07-07 08:49:00,80.8,73.7,30.22,WSW,258,2.5,4.6,79,0.00,CLR,,0.00,WeatherDisplay:10.37,2013-07-07 12:49:00,
2013-07-07 08:54:00,80.7,73.6,30.22,South,188,1.1,2.3,79,0.00,CLR,,0.00,WeatherDisplay:10.37,2013-07-07 12:54:00,
2013-07-07 08:59:00,80.3,73.2,30.22,SW,218,3.7,5.8,79,0.00,CLR,,0.00,WeatherDisplay:10.37,2013-07-07 12:59:00,
2013-07-07 09:04:00,80.3,73.6,30.22,SSW,196,2.4,8.1,80,0.00,CLR,,0.00,WeatherDisplay:10.37,2013-07-07 13:04:00,
2013-07-07 09:09:00,80.4,73.7,30.22,SSW,193,3.2,6.9,80,0.00,CLR,,0.00,WeatherDisplay:10.37,2013-07-07 13:09:00,
2013-07-07 09:14:00,80.7,73.6,30.22,SSW,192,0.0,0.0,79,0.00,CLR,,0.00,WeatherDisplay:10.37,2013-07-07 13:14:00,
2013-07-07 09:19:00,81.3,73.8,30.21,South,178,2.2,3.5,78,0.00,CLR,,0.00,WeatherDisplay:10.37,2013-07-07 13:19:00,
2013-07-07 09:24:00,81.6,73.7,30.21,SSW,202,4.1,6.9,77,0.00,CLR,,0.00,WeatherDisplay:10.37,2013-07-07 13:24:00,
2013-07-07 09:30:00,82.0,74.5,30.22,SSW,203,1.3,3.5,78,0.00,CLR,,0.00,WeatherDisplay:10.37,2013-07-07 13:30:00,
2013-07-07 09:35:00,82.5,75.0,30.22,SSW,195,2.0,8.0,78,0.00,CLR,,0.00,WeatherDisplay:10.37,2013-07-07 13:35:00,
2013-07-07 09:40:00,82.8,74.1,30.22,SSW,209,5.0,6.9,75,0.00,CLR,,0.00,WeatherDisplay:10.37,2013-07-07 13:40:00,
2013-07-07 09:45:00,82.8,74.4,30.22,SSW,197,5.0,9.0,76,0.00,CLR,,0.00,WeatherDisplay:10.37,2013-07-07 13:45:00,
2013-07-07 09:50:00,82.8,74.1,30.22,SSW,194,3.0,8.0,75,0.00,CLR,,0.00,WeatherDisplay:10.37,2013-07-07 13:50:00,
2013-07-07 09:55:00,83.0,73.9,30.22,SSW,199,5.0,10.0,74,0.00,CLR,,0.00,WeatherDisplay:10.37,2013-07-07 13:55:00,
2013-07-07 10:00:00,83.0,74.3,30.22,SSW,201,2.0,7.0,75,0.00,CLR,,0.00,WeatherDisplay:10.37,2013-07-07 14:00:00,
2013-07-07 10:05:00,83.1,74.4,30.21,SSW,195,3.0,7.0,75,0.00,CLR,,0.00,WeatherDisplay:10.37,2013-07-07 14:05:00,
2013-07-07 10:10:00,83.4,74.3,30.21,SSW,198,2.0,9.0,74,0.00,CLR,,0.00,WeatherDisplay:10.37,2013-07-07 14:10:00,
2013-07-07 10:15:00,83.8,74.6,30.21,SSW,197,2.0,8.0,74,0.00,CLR,,0.00,WeatherDisplay:10.37,2013-07-07 14:15:00,
2013-07-07 10:20:00,84.0,74.8,30.21,South,188,2.0,8.0,74,0.00,CLR,,0.00,WeatherDisplay:10.37,2013-07-07 14:20:00,
2013-07-07 10:25:00,83.8,74.2,30.21,South,187,5.0,12.0,73,0.00,CLR,,0.00,WeatherDisplay:10.37,2013-07-07 14:25:00,
2013-07-07 10:30:00,83.8,74.2,30.21,South,177,1.9,3.5,73,0.00,CLR,,0.00,WeatherDisplay:10.37,2013-07-07 14:30:00,
2013-07-07 10:35:00,83.8,75.0,30.21,SW,224,3.5,6.9,75,0.00,CLR,,0.00,WeatherDisplay:10.37,2013-07-07 14:35:00,
2013-07-07 10:40:00,84.1,74.9,30.21,WSW,237,2.3,3.5,74,0.00,CLR,,0.00,WeatherDisplay:10.37,2013-07-07 14:40:00,
2013-07-07 10:45:00,84.4,74.4,30.21,South,186,3.8,5.8,72,0.00,CLR,,0.00,WeatherDisplay:10.37,2013-07-07 14:45:00,
2013-07-07 10:50:00,84.5,74.1,30.21,SSE,150,4.4,9.2,71,0.00,CLR,,0.00,WeatherDisplay:10.37,2013-07-07 14:50:00,
2013-07-07 10:55:00,84.6,74.6,30.21,South,191,4.0,9.2,72,0.00,CLR,,0.00,WeatherDisplay:10.37,2013-07-07 14:55:00,
2013-07-07 11:00:00,84.8,74.8,30.21,SSW,210,5.5,6.9,72,0.00,CLR,,0.00,WeatherDisplay:10.37,2013-07-07 15:00:00,
2013-07-07 11:06:00,84.9,74.4,30.21,ESE,113,1.8,5.8,71,0.00,CLR,,0.00,WeatherDisplay:10.37,2013-07-07 15:06:00,
2013-07-07 11:11:00,85.0,75.0,30.21,SSW,210,0.7,3.0,72,0.00,CLR,,0.00,WeatherDisplay:10.37,2013-07-07 15:11:00,
2013-07-07 11:16:00,84.9,74.9,30.21,SW,230,3.8,6.9,72,0.00,CLR,,0.00,WeatherDisplay:10.37,2013-07-07 15:16:00,
2013-07-07 11:21:00,84.7,74.7,30.21,South,179,7.7,10.4,72,0.00,CLR,,0.00,WeatherDisplay:10.37,2013-07-07 15:21:00,
2013-07-07 11:26:00,84.5,74.1,30.21,SSW,192,4.5,10.4,71,0.00,CLR,,0.00,WeatherDisplay:10.37,2013-07-07 15:26:00,
2013-07-07 11:31:00,84.3,73.9,30.21,SW,221,7.0,11.5,71,0.00,CLR,,0.00,WeatherDisplay:10.37,2013-07-07 15:31:00,
2013-07-07 11:36:00,84.2,74.6,30.21,SE,139,2.4,9.2,73,0.00,CLR,,0.00,WeatherDisplay:10.37,2013-07-07 15:36:00,
2013-07-07 11:42:00,84.4,74.4,30.21,SSE,159,5.1,8.1,72,0.00,CLR,,0.00,WeatherDisplay:10.37,2013-07-07 15:42:00,
2013-07-07 11:47:00,84.7,75.1,30.21,SSW,212,3.6,7.0,73,0.00,CLR,,0.00,WeatherDisplay:10.37,2013-07-07 15:47:00,
2013-07-07 11:52:00,84.8,75.2,30.21,SSW,205,4.8,9.2,73,0.00,CLR,,0.00,WeatherDisplay:10.37,2013-07-07 15:52:00,
2013-07-07 11:57:00,84.7,74.7,30.21,SW,226,3.1,7.0,72,0.00,CLR,,0.00,WeatherDisplay:10.37,2013-07-07 15:57:00,
2013-07-07 12:02:00,84.7,74.7,30.20,SSW,213,4.1,10.4,72,0.00,CLR,,0.00,WeatherDisplay:10.37,2013-07-07 16:02:00,
2013-07-07 12:08:00,84.9,75.3,30.20,WSW,250,4.8,8.1,73,0.00,CLR,,0.00,WeatherDisplay:10.37,2013-07-07 16:08:00,
2013-07-07 12:13:00,85.4,75.8,30.20,South,177,4.4,6.9,73,0.00,CLR,,0.00,WeatherDisplay:10.37,2013-07-07 16:13:00,
2013-07-07 12:18:00,85.4,75.3,30.20,SSW,209,3.1,5.8,72,0.00,CLR,,0.00,WeatherDisplay:10.37,2013-07-07 16:18:00,
2013-07-07 12:23:00,85.5,75.4,30.20,South,187,5.0,7.0,72,0.00,CLR,,0.00,WeatherDisplay:10.37,2013-07-07 16:23:00,
2013-07-07 12:28:00,85.4,75.8,30.20,South,169,2.7,5.8,73,0.00,CLR,,0.00,WeatherDisplay:10.37,2013-07-07 16:28:00,
2013-07-07 12:33:00,85.7,75.6,30.20,SW,221,4.7,10.4,72,0.00,CLR,,0.00,WeatherDisplay:10.37,2013-07-07 16:33:00,
2013-07-07 12:38:00,85.6,75.1,30.20,SSW,192,3.0,6.9,71,0.00,CLR,,0.00,WeatherDisplay:10.37,2013-07-07 16:38:00,
2013-07-07 12:43:00,85.5,75.0,30.20,SSW,209,6.3,8.1,71,0.00,CLR,,0.00,WeatherDisplay:10.37,2013-07-07 16:43:00,
2013-07-07 12:49:00,85.5,76.3,30.20,SSW,205,3.1,4.6,74,0.00,CLR,,0.00,WeatherDisplay:10.37,2013-07-07 16:49:00,
2013-07-07 12:54:00,85.5,74.6,30.20,SSW,196,3.3,6.9,70,0.00,CLR,,0.00,WeatherDisplay:10.37,2013-07-07 16:54:00,
2013-07-07 12:59:00,85.4,74.1,30.20,South,190,4.6,7.0,69,0.00,CLR,,0.00,WeatherDisplay:10.37,2013-07-07 16:59:00,
2013-07-07 13:04:00,85.4,74.5,30.20,SSW,194,2.9,6.9,70,0.00,CLR,,0.00,WeatherDisplay:10.37,2013-07-07 17:04:00,
2013-07-07 13:09:00,85.6,73.8,30.20,SSW,194,4.0,8.1,68,0.00,CLR,,0.00,WeatherDisplay:10.37,2013-07-07 17:09:00,
2013-07-07 13:14:00,85.4,74.5,30.20,South,188,5.4,8.1,70,0.00,CLR,,0.00,WeatherDisplay:10.37,2013-07-07 17:14:00,
2013-07-07 13:20:00,85.3,73.5,30.20,SSW,202,3.0,12.0,68,0.00,CLR,,0.00,WeatherDisplay:10.37,2013-07-07 17:20:00,
2013-07-07 13:25:00,85.2,73.9,30.19,SSW,200,3.0,12.0,69,0.00,CLR,,0.00,WeatherDisplay:10.37,2013-07-07 17:25:00,
2013-07-07 13:30:00,85.5,75.0,30.19,SSW,197,6.0,7.0,71,0.00,CLR,,0.00,WeatherDisplay:10.37,2013-07-07 17:30:00,
2013-07-07 13:35:00,85.6,74.3,30.19,SSW,199,2.0,12.0,69,0.00,CLR,,0.00,WeatherDisplay:10.37,2013-07-07 17:35:00,
2013-07-07 13:40:00,85.9,73.7,30.19,South,189,3.0,8.0,67,0.00,CLR,,0.00,WeatherDisplay:10.37,2013-07-07 17:40:00,
2013-07-07 13:45:00,86.1,74.3,30.19,SSW,198,5.0,13.0,68,0.00,CLR,,0.00,WeatherDisplay:10.37,2013-07-07 17:45:00,
2013-07-07 13:50:00,85.7,73.5,30.19,SW,215,6.6,11.5,67,0.00,CLR,,0.00,WeatherDisplay:10.37,2013-07-07 17:50:00,
2013-07-07 13:55:00,85.7,74.8,30.19,WSW,237,4.7,5.8,70,0.00,CLR,,0.00,WeatherDisplay:10.37,2013-07-07 17:55:00,
2013-07-07 14:00:00,86.1,74.7,30.18,SSW,213,5.1,6.9,69,0.00,CLR,,0.00,WeatherDisplay:10.37,2013-07-07 18:00:00,
2013-07-07 14:06:00,86.1,73.9,30.19,SW,229,7.6,10.4,67,0.00,CLR,,0.00,WeatherDisplay:10.37,2013-07-07 18:06:00,
2013-07-07 14:11:00,85.9,73.2,30.18,South,184,4.2,6.9,66,0.00,CLR,,0.00,WeatherDisplay:10.37,2013-07-07 18:11:00,
2013-07-07 14:16:00,85.8,74.0,30.19,South,175,5.6,9.2,68,0.00,CLR,,0.00,WeatherDisplay:10.37,2013-07-07 18:16:00,
2013-07-07 14:21:00,85.7,74.4,30.18,South,187,4.1,8.1,69,0.00,CLR,,0.00,WeatherDisplay:10.37,2013-07-07 18:21:00,
2013-07-07 14:26:00,85.9,74.1,30.18,South,186,2.4,5.8,68,0.00,CLR,,0.00,WeatherDisplay:10.37,2013-07-07 18:26:00,
2013-07-07 14:31:00,85.9,72.8,30.18,South,187,5.3,10.4,65,0.00,CLR,,0.00,WeatherDisplay:10.37,2013-07-07 18:31:00,
2013-07-07 14:36:00,85.9,72.8,30.18,South,188,5.9,9.2,65,0.00,CLR,,0.00,WeatherDisplay:10.37,2013-07-07 18:36:00,
2013-07-07 14:41:00,85.8,74.0,30.18,SW,217,5.2,13.0,68,0.00,CLR,,0.00,WeatherDisplay:10.37,2013-07-07 18:41:00,
2013-07-07 14:46:00,85.8,72.2,30.17,South,174,1.2,8.1,64,0.00,CLR,,0.00,WeatherDisplay:10.37,2013-07-07 18:46:00,
2013-07-07 14:52:00,85.9,72.3,30.17,SSW,212,3.7,8.1,64,0.00,CLR,,0.00,WeatherDisplay:10.37,2013-07-07 18:52:00,
2013-07-07 14:57:00,86.1,74.3,30.17,SSW,211,5.9,13.8,68,0.00,CLR,,0.00,WeatherDisplay:10.37,2013-07-07 18:57:00,
2013-07-07 15:02:00,86.0,73.8,30.17,SSW,204,4.5,9.2,67,0.00,CLR,,0.00,WeatherDisplay:10.37,2013-07-07 19:02:00,
2013-07-07 15:07:00,86.0,72.4,30.17,South,172,1.7,5.0,64,0.00,CLR,,0.00,WeatherDisplay:10.37,2013-07-07 19:07:00,
2013-07-07 15:12:00,86.4,73.2,30.17,SSW,195,2.0,4.6,65,0.00,CLR,,0.00,WeatherDisplay:10.37,2013-07-07 19:12:00,
2013-07-07 15:17:00,86.8,74.5,30.16,South,184,2.6,3.5,67,0.00,CLR,,0.00,WeatherDisplay:10.37,2013-07-07 19:17:00,
2013-07-07 15:22:00,86.7,74.4,30.16,South,186,4.5,10.4,67,0.00,CLR,,0.00,WeatherDisplay:10.37,2013-07-07 19:22:00,
2013-07-07 15:27:00,86.6,73.9,30.16,SW,217,2.4,3.5,66,0.00,CLR,,0.00,WeatherDisplay:10.37,2013-07-07 19:27:00,
2013-07-07 15:32:00,86.9,74.6,30.16,SSW,207,2.6,11.5,67,0.00,CLR,,0.00,WeatherDisplay:10.37,2013-07-07 19:32:00,
2013-07-07 15:37:00,87.0,74.3,30.16,WSW,257,3.4,10.4,66,0.00,CLR,,0.00,WeatherDisplay:10.37,2013-07-07 19:37:00,
2013-07-07 15:43:00,87.1,74.8,30.16,South,186,7.4,13.8,67,0.00,CLR,,0.00,WeatherDisplay:10.37,2013-07-07 19:43:00,
2013-07-07 15:48:00,86.6,73.9,30.16,SSW,211,2.9,6.9,66,0.00,CLR,,0.00,WeatherDisplay:10.37,2013-07-07 19:48:00,
2013-07-07 15:53:00,86.2,74.0,30.15,SW,222,4.7,8.1,67,0.00,CLR,,0.00,WeatherDisplay:10.37,2013-07-07 19:53:00,
2013-07-07 15:58:00,86.3,74.5,30.16,SSW,192,3.3,8.1,68,0.00,CLR,,0.00,WeatherDisplay:10.37,2013-07-07 19:58:00,
2013-07-07 16:03:00,86.2,74.0,30.15,South,171,6.1,11.5,67,0.00,CLR,,0.00,WeatherDisplay:10.37,2013-07-07 20:03:00,
2013-07-07 16:08:00,85.9,73.7,30.15,South,171,3.2,4.6,67,0.00,CLR,,0.00,WeatherDisplay:10.37,2013-07-07 20:08:00,
2013-07-07 16:14:00,85.8,74.0,30.15,SSW,200,5.1,9.2,68,0.00,CLR,,0.00,WeatherDisplay:10.37,2013-07-07 20:14:00,
2013-07-07 16:19:00,85.7,73.9,30.15,SSW,192,4.7,6.9,68,0.00,CLR,,0.00,WeatherDisplay:10.37,2013-07-07 20:19:00,
2013-07-07 16:24:00,85.8,74.4,30.15,South,173,2.4,5.0,69,0.00,CLR,,0.00,WeatherDisplay:10.37,2013-07-07 20:24:00,
2013-07-07 16:29:00,85.8,74.4,30.14,SSW,207,0.6,10.4,69,0.00,CLR,,0.00,WeatherDisplay:10.37,2013-07-07 20:29:00,
2013-07-07 16:35:00,85.8,74.9,30.14,South,180,2.5,6.9,70,0.00,CLR,,0.00,WeatherDisplay:10.37,2013-07-07 20:35:00,
2013-07-07 16:40:00,85.7,74.4,30.14,SSW,209,1.9,3.5,69,0.00,CLR,,0.00,WeatherDisplay:10.37,2013-07-07 20:40:00,
2013-07-07 16:45:00,85.7,74.4,30.14,SW,219,0.0,8.0,69,0.00,CLR,,0.00,WeatherDisplay:10.37,2013-07-07 20:45:00,
2013-07-07 16:50:00,86.0,75.5,30.14,SSW,206,5.0,15.0,71,0.00,CLR,,0.00,WeatherDisplay:10.37,2013-07-07 20:50:00,
2013-07-07 16:55:00,85.8,73.5,30.14,South,188,5.0,12.0,67,0.00,CLR,,0.00,WeatherDisplay:10.37,2013-07-07 20:55:00,
2013-07-07 17:00:00,85.4,74.1,30.14,South,191,6.0,12.0,69,0.00,CLR,,0.00,WeatherDisplay:10.37,2013-07-07 21:00:00,
2013-07-07 17:05:00,85.3,74.0,30.13,South,183,4.3,8.1,69,0.00,CLR,,0.00,WeatherDisplay:10.37,2013-07-07 21:05:00,
2013-07-07 17:10:00,85.1,73.8,30.13,SSW,194,5.0,13.0,69,0.00,CLR,,0.00,WeatherDisplay:10.37,2013-07-07 21:10:00,
2013-07-07 17:15:00,84.9,74.0,30.13,SSW,197,3.0,14.0,70,0.00,CLR,,0.00,WeatherDisplay:10.37,2013-07-07 21:15:00,
2013-07-07 17:20:00,84.9,74.1,30.13,SSW,192,3.0,7.0,70,0.00,CLR,,0.00,WeatherDisplay:10.37,2013-07-07 21:20:00,
2013-07-07 17:25:00,84.9,74.0,30.12,South,189,6.0,13.0,70,0.00,CLR,,0.00,WeatherDisplay:10.37,2013-07-07 21:25:00,
2013-07-07 17:30:00,84.7,74.3,30.12,SSW,198,3.0,9.0,71,0.00,CLR,,0.00,WeatherDisplay:10.37,2013-07-07 21:30:00,
2013-07-07 17:35:00,84.8,73.9,30.12,SSW,197,3.7,8.1,70,0.00,CLR,,0.00,WeatherDisplay:10.37,2013-07-07 21:35:00,
2013-07-07 17:40:00,84.7,74.3,30.12,SW,216,4.3,8.1,71,0.00,CLR,,0.00,WeatherDisplay:10.37,2013-07-07 21:40:00,
2013-07-07 17:45:00,84.3,73.9,30.12,South,188,6.3,8.1,71,0.00,CLR,,0.00,WeatherDisplay:10.37,2013-07-07 21:45:00,
2013-07-07 17:50:00,83.9,74.3,30.12,SSW,193,4.1,8.1,73,0.00,CLR,,0.00,WeatherDisplay:10.37,2013-07-07 21:50:00,
2013-07-07 17:56:00,83.6,74.0,30.12,SSW,194,4.8,11.5,73,0.00,CLR,,0.00,WeatherDisplay:10.37,2013-07-07 21:56:00,
2013-07-07 18:01:00,83.2,74.0,30.12,SSW,198,2.8,5.8,74,0.00,CLR,,0.00,WeatherDisplay:10.37,2013-07-07 22:01:00,
2013-07-07 18:06:00,83.1,73.5,30.11,South,180,7.1,11.5,73,0.00,CLR,,0.00,WeatherDisplay:10.37,2013-07-07 22:06:00,
2013-07-07 18:11:00,82.9,74.2,30.11,South,182,3.2,3.2,75,0.00,CLR,,0.00,WeatherDisplay:10.37,2013-07-07 22:11:00,
2013-07-07 18:16:00,82.8,73.7,30.11,South,182,3.8,8.0,74,0.00,CLR,,0.00,WeatherDisplay:10.37,2013-07-07 22:16:00,
2013-07-07 18:22:00,82.6,73.5,30.11,South,183,1.0,4.6,74,0.00,CLR,,0.00,WeatherDisplay:10.37,2013-07-07 22:22:00,
2013-07-07 18:27:00,82.6,74.3,30.11,South,185,0.7,3.5,76,0.00,CLR,,0.00,WeatherDisplay:10.37,2013-07-07 22:27:00,
2013-07-07 18:32:00,82.6,73.9,30.11,South,188,1.1,10.4,75,0.00,CLR,,0.00,WeatherDisplay:10.37,2013-07-07 22:32:00,
2013-07-07 18:37:00,82.5,73.4,30.11,SW,219,3.9,6.9,74,0.00,CLR,,0.00,WeatherDisplay:10.37,2013-07-07 22:37:00,
2013-07-07 18:42:00,82.5,73.4,30.11,SSE,167,3.2,3.5,74,0.00,CLR,,0.00,WeatherDisplay:10.37,2013-07-07 22:42:00,
2013-07-07 18:48:00,82.3,73.2,30.11,SSW,204,3.3,8.1,74,0.00,CLR,,0.00,WeatherDisplay:10.37,2013-07-07 22:48:00,
2013-07-07 18:53:00,82.3,74.0,30.12,South,184,5.5,13.8,76,0.00,CLR,,0.00,WeatherDisplay:10.37,2013-07-07 22:53:00,
2013-07-07 18:58:00,82.2,73.1,30.12,South,172,3.7,10.4,74,0.00,CLR,,0.00,WeatherDisplay:10.37,2013-07-07 22:58:00,
2013-07-07 19:03:00,82.3,73.6,30.11,SSW,200,2.8,6.9,75,0.00,CLR,,0.00,WeatherDisplay:10.37,2013-07-07 23:03:00,
2013-07-07 19:08:00,82.4,73.3,30.11,SSE,167,1.7,8.1,74,0.00,CLR,,0.00,WeatherDisplay:10.37,2013-07-07 23:08:00,
2013-07-07 19:13:00,82.4,73.7,30.11,SSW,200,4.5,6.0,75,0.00,CLR,,0.00,WeatherDisplay:10.37,2013-07-07 23:13:00,
2013-07-07 19:18:00,82.2,73.1,30.12,South,183,1.9,6.9,74,0.00,CLR,,0.00,WeatherDisplay:10.37,2013-07-07 23:18:00,
2013-07-07 19:24:00,82.0,73.3,30.12,SW,219,3.2,8.1,75,0.00,CLR,,0.00,WeatherDisplay:10.37,2013-07-07 23:24:00,
2013-07-07 19:29:00,81.9,73.2,30.12,South,180,4.1,6.9,75,0.00,CLR,,0.00,WeatherDisplay:10.37,2013-07-07 23:29:00,
2013-07-07 19:34:00,81.8,73.1,30.12,South,169,2.2,11.0,75,0.00,CLR,,0.00,WeatherDisplay:10.37,2013-07-07 23:34:00,
2013-07-07 19:39:00,81.7,73.4,30.12,SSE,165,5.1,5.8,76,0.00,CLR,,0.00,WeatherDisplay:10.37,2013-07-07 23:39:00,
2013-07-07 19:45:00,81.6,73.3,30.12,South,189,5.0,7.0,76,0.00,CLR,,0.00,WeatherDisplay:10.37,2013-07-07 23:45:00,
2013-07-07 19:50:00,81.3,73.4,30.12,SSW,192,3.0,9.0,77,0.00,CLR,,0.00,WeatherDisplay:10.37,2013-07-07 23:50:00,
2013-07-07 19:55:00,81.0,73.1,30.12,South,190,1.0,8.0,77,0.00,CLR,,0.00,WeatherDisplay:10.37,2013-07-07 23:55:00,
2013-07-07 20:00:00,80.7,73.2,30.12,SSW,193,5.0,7.0,78,0.00,CLR,,0.00,WeatherDisplay:10.37,2013-07-08 00:00:00,
2013-07-07 20:05:00,80.5,73.8,30.12,SSW,197,3.0,8.0,80,0.00,CLR,,0.00,WeatherDisplay:10.37,2013-07-08 00:05:00,
2013-07-07 20:10:00,80.2,73.1,30.12,SSW,202,5.0,9.0,79,0.00,CLR,,0.00,WeatherDisplay:10.37,2013-07-08 00:10:00,
2013-07-07 20:15:00,80.0,73.6,30.12,SSW,192,1.6,4.6,81,0.00,CLR,,0.00,WeatherDisplay:10.37,2013-07-08 00:15:00,
2013-07-07 20:20:00,79.8,73.1,30.12,SW,215,6.4,8.1,80,0.00,CLR,,0.00,WeatherDisplay:10.37,2013-07-08 00:20:00,
2013-07-07 20:25:00,79.7,73.0,30.12,South,186,3.4,8.1,80,0.00,CLR,,0.00,WeatherDisplay:10.37,2013-07-08 00:25:00,
2013-07-07 20:31:00,79.5,72.4,30.12,SSE,158,3.5,6.9,79,0.00,CLR,,0.00,WeatherDisplay:10.37,2013-07-08 00:31:00,
2013-07-07 20:36:00,79.5,72.8,30.12,South,178,4.1,6.0,80,0.00,CLR,,0.00,WeatherDisplay:10.37,2013-07-08 00:36:00,
2013-07-07 20:41:00,79.5,73.2,30.12,SSW,192,2.6,4.6,81,0.00,CLR,,0.00,WeatherDisplay:10.37,2013-07-08 00:41:00,
2013-07-07 20:46:00,79.4,73.4,30.12,SSW,200,3.9,9.2,82,0.00,CLR,,0.00,WeatherDisplay:10.37,2013-07-08 00:46:00,
2013-07-07 20:51:00,79.4,73.4,30.13,WSW,237,4.0,8.1,82,0.00,CLR,,0.00,WeatherDisplay:10.37,2013-07-08 00:51:00,
2013-07-07 20:57:00,79.3,73.0,30.13,South,178,4.8,5.8,81,0.00,CLR,,0.00,WeatherDisplay:10.37,2013-07-08 00:57:00,
2013-07-07 21:02:00,79.2,73.2,30.13,SSW,199,4.8,10.4,82,0.00,CLR,,0.00,WeatherDisplay:10.37,2013-07-08 01:02:00,
2013-07-07 21:07:00,79.2,73.2,30.13,SSW,192,3.7,8.1,82,0.00,CLR,,0.00,WeatherDisplay:10.37,2013-07-08 01:07:00,
2013-07-07 21:12:00,79.2,73.6,30.14,SSW,195,4.8,8.0,83,0.00,CLR,,0.00,WeatherDisplay:10.37,2013-07-08 01:12:00,
2013-07-07 21:17:00,79.2,73.6,30.14,SSW,199,5.3,11.5,83,0.00,CLR,,0.00,WeatherDisplay:10.37,2013-07-08 01:17:00,
2013-07-07 21:22:00,79.1,73.5,30.14,SSW,202,5.6,9.0,83,0.00,CLR,,0.00,WeatherDisplay:10.37,2013-07-08 01:22:00,
2013-07-07 21:27:00,79.2,73.6,30.15,South,180,4.4,12.7,83,0.00,CLR,,0.00,WeatherDisplay:10.37,2013-07-08 01:27:00,
2013-07-07 21:33:00,79.2,73.9,30.15,SSE,150,5.0,8.1,84,0.00,CLR,,0.00,WeatherDisplay:10.37,2013-07-08 01:33:00,
2013-07-07 21:38:00,79.2,73.6,30.15,SSW,192,3.9,9.2,83,0.00,CLR,,0.00,WeatherDisplay:10.37,2013-07-08 01:38:00,
2013-07-07 21:43:00,79.2,73.9,30.15,South,180,3.0,6.9,84,0.00,CLR,,0.00,WeatherDisplay:10.37,2013-07-08 01:43:00,
2013-07-07 21:48:00,79.1,73.8,30.15,South,183,3.5,8.1,84,0.00,CLR,,0.00,WeatherDisplay:10.37,2013-07-08 01:48:00,
2013-07-07 21:54:00,79.1,73.8,30.15,SW,227,4.5,9.2,84,0.00,CLR,,0.00,WeatherDisplay:10.37,2013-07-08 01:54:00,
2013-07-07 21:59:00,79.0,73.7,30.15,SE,144,5.2,9.2,84,0.00,CLR,,0.00,WeatherDisplay:10.37,2013-07-08 01:59:00,
2013-07-07 22:04:00,79.0,73.7,30.15,SSW,213,8.0,12.7,84,0.00,CLR,,0.00,WeatherDisplay:10.37,2013-07-08 02:04:00,
2013-07-07 22:09:00,78.9,73.7,30.16,South,190,2.9,8.0,84,0.00,CLR,,0.00,WeatherDisplay:10.37,2013-07-08 02:09:00,
2013-07-07 22:14:00,78.9,73.7,30.16,South,186,5.8,12.0,84,0.00,CLR,,0.00,WeatherDisplay:10.37,2013-07-08 02:14:00,
2013-07-07 22:19:00,79.0,73.7,30.16,SSW,211,3.7,5.0,84,0.00,CLR,,0.00,WeatherDisplay:10.37,2013-07-08 02:19:00,
2013-07-07 22:24:00,78.9,73.7,30.16,SSW,205,3.9,9.2,84,0.00,CLR,,0.00,WeatherDisplay:10.37,2013-07-08 02:24:00,
2013-07-07 22:29:00,78.9,73.3,30.16,South,173,5.4,11.5,83,0.00,CLR,,0.00,WeatherDisplay:10.37,2013-07-08 02:29:00,
2013-07-07 22:34:00,78.9,73.7,30.17,SSW,202,6.8,9.2,84,0.00,CLR,,0.00,WeatherDisplay:10.37,2013-07-08 02:34:00,
2013-07-07 22:40:00,78.9,73.7,30.17,SSW,196,3.0,8.0,84,0.00,CLR,,0.00,WeatherDisplay:10.37,2013-07-08 02:40:00,
2013-07-07 22:45:00,78.9,74.0,30.17,SSE,165,0.0,3.5,85,0.00,CLR,,0.00,WeatherDisplay:10.37,2013-07-08 02:45:00,
2013-07-07 22:50:00,78.8,73.6,30.17,SSW,207,4.1,10.4,84,0.00,CLR,,0.00,WeatherDisplay:10.37,2013-07-08 02:50:00,
2013-07-07 22:55:00,78.8,73.6,30.16,South,180,1.3,3.5,84,0.00,CLR,,0.00,WeatherDisplay:10.37,2013-07-08 02:55:00,
2013-07-07 23:00:00,78.8,73.6,30.17,SSW,210,4.3,8.0,84,0.00,CLR,,0.00,WeatherDisplay:10.37,2013-07-08 03:00:00,
2013-07-07 23:05:00,78.7,73.1,30.17,SW,221,4.1,4.6,83,0.00,CLR,,0.00,WeatherDisplay:10.37,2013-07-08 03:05:00,
2013-07-07 23:11:00,78.7,72.7,30.17,SSW,213,3.1,5.8,82,0.00,CLR,,0.00,WeatherDisplay:10.37,2013-07-08 03:11:00,
2013-07-07 23:15:00,78.8,72.5,30.17,South,188,1.3,6.9,81,0.00,CLR,,0.00,WeatherDisplay:10.37,2013-07-08 03:15:00,
2013-07-07 23:21:00,78.8,72.5,30.17,South,181,2.8,4.6,81,0.00,CLR,,0.00,WeatherDisplay:10.37,2013-07-08 03:21:00,
2013-07-07 23:26:00,78.8,72.8,30.17,SW,217,3.0,6.0,82,0.00,CLR,,0.00,WeatherDisplay:10.37,2013-07-08 03:26:00,
2013-07-07 23:31:00,78.8,73.2,30.17,SSW,204,3.9,4.6,83,0.00,CLR,,0.00,WeatherDisplay:10.37,2013-07-08 03:31:00,
2013-07-07 23:37:00,78.7,73.1,30.17,South,179,3.6,5.8,83,0.00,CLR,,0.00,WeatherDisplay:10.37,2013-07-08 03:37:00,
2013-07-07 23:42:00,78.7,73.5,30.17,South,190,0.7,3.5,84,0.00,CLR,,0.00,WeatherDisplay:10.37,2013-07-08 03:42:00,
2013-07-07 23:47:00,78.6,73.4,30.17,SW,224,3.5,8.1,84,0.00,CLR,,0.00,WeatherDisplay:10.37,2013-07-08 03:47:00,
2013-07-07 23:52:00,78.6,73.7,30.18,SSW,200,0.4,3.5,85,0.00,CLR,,0.00,WeatherDisplay:10.37,2013-07-08 03:52:00,
2013-07-07 23:57:00,78.5,73.6,30.18,SSE,147,0.3,2.3,85,0.00,CLR,,0.00,WeatherDisplay:10.37,2013-07-08 03:57:00,